Tracking 31027 objects as of 19-Jul-2025
HD Live streaming from Space Station
objects crossing your sky now

STARLINK-30838

Track STARLINK-30838 now!
10-day predictions
STARLINK-30838 is classified as:


NORAD ID: 58211
Int'l Code: 2023-170F
Perigee: 565.4 km
Apogee: 567.1 km
Inclination: 43.0 °
Period: 95.8 minutes
Semi major axis: 6937 km
RCS: Unknown
Launch date: November 3, 2023
Source: United States (US)
Launch site: AIR FORCE EASTERN TEST RANGE (AFETR)
Your satellite tracking list
ONEWEB-0142
Track 1 satellite(s)




NASA's NSSDC Master Catalog

Two Line Element Set (TLE):
1 58211U 23170F   25199.85092119  .00000156  00000-0  26653-4 0  9999
2 58211  43.0052  26.5738 0001234 261.1620  98.9082 15.02530547 95127
Source of the keplerian elements: AFSPC